User: anonymous   Login
Location: México DF
(19.4326°N, 99.1332°W)
Time: 01:11:26
(UTC+00:00)
Language:

ISS - Orbit

View from above orbital plane
View from above orbital plane
View from above satellite
View from above satellite

Ground track
Ground track

The orbit data is extracted from the following two-line orbital elements,

1 25544U 98067A   24114.77318456  .00038724  00000-0  66497-3 0  9992
2 25544  51.6424 225.2201 0004552  84.2960  47.5019 15.50756717450103
Epoch (UTC): 23 April 2024 18:33:23
Eccentricity: 0.0004552
inclination: 51.6424°
perigee height: 411 km
apogee height: 417 km
right ascension of ascending node: 225.2201°
argument of perigee: 84.2960°
revolutions per day: 15.50756717
mean anomaly at epoch: 47.5019°
orbit number at epoch: 45010

The dashed part of the orbit path shows where the satellite is in the earth's shadow,  

DLR